Flag for Germany Weather past 2 weeks in Bad Kreuznach, Rhineland-Palatinate, Germany

Now
50 °F

Overcast.


Feels Like: 50 °F
Forecast: 45 / 58 °F
Wind: 2 mph from East

Location: Wiesbaden Airport

Current Time: Apr 26, 2015 at 3:52:22 AM

Latest Report: Apr 26, 2015 at 2:58 AM


Visibility: N/A

Pressure: 29.83 "Hg

Humidity: 100%

Dew point: 50 °F

Location of Bad KreuznachLocation

Historic Weather in Bad Kreuznach — Graph

°F

Bad Kreuznach temperature yesterday

Maximum temperature yesterday: 61 °F (at 3:58 PM)
Minimum temperature yesterday: 45 °F (at 2:58 AM)
Average temperature yesterday: 54 °F

Past Weeks' High & Low Weather Summary

 TemperatureHumidityPressure
High76 °F (Apr 15, 3:58 PM)100% (Apr 26, 1:58 AM)30.84 "Hg (Apr 26, 1:58 AM)
Low37 °F (Apr 14, 4:58 AM)23% (Apr 21, 2:58 PM)29.80 "Hg (Apr 25, 4:58 PM)
Average55 °F59%30.17 "Hg
* Reported Apr 11 1:58 AM — Apr 26 1:58 AM, Bad Kreuznach, Weather by CustomWeather, © 2015

Note: Actual official high and low records may vary slightly from our data, if they occured in-between our weather recording intervals... More about our weather records

Advertising

Bad Kreuznach weather history for previous 24 hours

 ConditionsComfort  
Time TempWeatherWind HumidityBarometerVisibility
1:58 AM
Sun, Apr 26
50 °FPassing clouds.3 mph100%29.83 "HgN/A
12:58 AM52 °FPassing clouds.No wind99%29.85 "HgN/A
11:58 PM
Sat, Apr 25
51 °FPassing clouds.No wind94%29.84 "HgN/A
10:58 PM54 °FPassing clouds.6 mph88%29.84 "HgN/A
9:58 PM57 °FPassing clouds.5 mph77%29.83 "HgN/A
8:58 PM59 °FOvercast.6 mph77%29.82 "HgN/A
8:04 PM59 °FLight rain. Cloudy.8 mph77%29.80 "HgN/A
7:58 PM61 °FCloudy.12 mph68%29.80 "HgN/A
6:58 PM61 °FOvercast.10 mph69%29.80 "HgN/A
5:58 PM61 °FPartly sunny.12 mph72%29.81 "HgN/A
4:58 PM61 °FPartly sunny.14 mph72%29.80 "HgN/A
3:58 PM61 °FBroken clouds.12 mph69%29.81 "HgN/A
2:58 PM60 °FOvercast.8 mph74%29.82 "HgN/A
1:58 PM59 °FMostly cloudy.2 mph68%29.82 "HgN/A
12:58 PM58 °FPartly sunny.5 mph75%29.84 "HgN/A
11:58 AM54 °FOvercast.3 mph77%29.86 "HgN/A
10:58 AM54 °FLight rain. Overcast.3 mph76%29.87 "HgN/A
10:03 AM54 °FLight rain. Overcast.3 mph72%29.85 "HgN/A
9:58 AM53 °FOvercast.3 mph74%29.85 "HgN/A
9:04 AM52 °FBroken clouds.2 mph77%29.84 "HgN/A
8:58 AM51 °FScattered clouds.3 mph79%29.84 "HgN/A
7:58 AM50 °FSunny.3 mph76%29.83 "HgN/A
7:00 AM48 °FPassing clouds.No wind76%29.83 "HgN/A
6:58 AM47 °FPassing clouds.No wind82%29.83 "HgN/A
5:58 AM46 °FClear.1 mph82%29.82 "HgN/A
4:58 AM46 °FClear.No wind82%29.83 "HgN/A
3:58 AM45 °FClear.No wind81%29.84 "HgN/A
Weather by CustomWeather, © 2015

See weather overviewHow to use our weather pages